Location: Coll
(42.4728°N, 0.7714°E)
Time: 12:12:47
(UTC+00:00)

NOSS 3-2 (C) - Pass Details

Date: 23 October 2020
Orbit: 788 x 1424 km, 63.4° (Epoch: 26 November)

Event Time Altitude Azimuth Distance (km) Brightness Sun altitude
Exits shadow 05:29:58 10° 254° (WSW) 2,503 5.1 -9.8°
Reaches altitude 10° 05:30:01 10° 255° (WSW) 2,486 5.1 -9.8°
Maximum altitude 05:35:14 35° 320° (NW) 1,464 4.1 -8.9°
Drops below altitude 10° 05:41:11 10° 25° (NNE) 2,838 6.2 -7.8°
Sets 05:44:17 0° 34° (NE) 3,904 7.0 -7.2°
